Hamilton, OH

2:31 PM EDT on May 29, 2017 (GMT -0400)
Butler County Regional

Weather History for KHAO - August, 2014

Change the Weather History Date:

Thursday, August 14, 2014

  Actual Average (KLUK) Record (KLUK)
Temperature  
Mean Temperature 70 °F -  
Max Temperature 82 °F 85 °F 95 °F (1988)
Min Temperature 60 °F 64 °F 50 °F (1964)
Cooling Degree Days 6    
Growing Degree Days 20 (Base 50)    
Moisture  
Dew Point 59 °F    
Average Humidity 72    
Maximum Humidity 97    
Minimum Humidity 34    
Precipitation  
Precipitation 0.08 in - - ()
Sea Level Pressure  
Sea Level Pressure 30.02 in    
Wind  
Wind Speed 2 mph (NNW)    
Max Wind Speed 13 mph    
Max Gust Speed -    
Visibility 9 miles    
Events Rain    
Averages and records for this station are not official NWS values.
T = Trace of Precipitation, MM = Missing Value Source: NWS Daily Summary

Daily Weather History Graph

Daily Weather History Graph

Search for Another Location

Airport or City:

Trip Planner

Search our weather history database for the weather conditions in past years. The results will help you decide how hot, cold, wet, or windy it might be!

Date:

Astronomy

Aug. 14, 2014 Rise Set
Actual Time 6:49 AM EDT 8:34 PM EDT
Civil Twilight 6:21 AM EDT 9:03 PM EDT
Nautical Twilight 5:46 AM EDT 9:38 PM EDT
Astronomical Twilight 5:08 AM EDT 10:15 PM EDT
Moon 10:59 PM EDT (8/14) 11:23 AM EDT (8/14)
Length of Visible Light 14h 42m
Length of Day
13h 44m
Waning Gibbous, 79% of the Moon is Illuminated
Aug 14
Waning Gibbous
Aug 17
Last Quarter
Aug 25
New
Sep 2
First Quarter
Sep 8
Full

Hourly Weather History & Observations

Time (EDT) Temp. Heat Index Dew Point Humidity Pressure Visibility Wind Dir Wind Speed Gust Speed Precip Events Conditions
12:53 AM 66.0 °F - 60.1 °F 81% 30.03 in 10.0 mi Calm Calm - 0.00 in   Overcast
1:53 AM 66.0 °F - 61.0 °F 84% 30.02 in 10.0 mi West 3.5 mph - 0.00 in   Overcast
2:53 AM 66.9 °F - 60.1 °F 79% 30.01 in 10.0 mi West 3.5 mph - N/A   Overcast
3:31 AM 64.9 °F - 62.1 °F 90% 30.02 in 2.5 mi Calm Calm - 0.07 in Rain Rain
3:38 AM 64.9 °F - 63.0 °F 93% 30.02 in 9.0 mi Calm Calm - 0.07 in Rain Light Rain
3:53 AM 64.9 °F - 64.0 °F 97% 30.01 in 5.0 mi Calm Calm - 0.08 in Rain Light Rain
4:53 AM 64.9 °F - 64.0 °F 97% 30.00 in 8.0 mi Calm Calm - 0.00 in Rain Light Rain
5:53 AM 64.0 °F - 63.0 °F 96% 30.01 in 9.0 mi Calm Calm - 0.00 in   Overcast
6:53 AM 64.0 °F - 63.0 °F 96% 30.03 in 9.0 mi Calm Calm - N/A   Overcast
7:53 AM 64.9 °F - 64.0 °F 97% 30.04 in 10.0 mi Calm Calm - N/A   Mostly Cloudy
8:53 AM 66.9 °F - 63.0 °F 87% 30.06 in 10.0 mi Calm Calm - N/A   Partly Cloudy
9:53 AM 71.1 °F - 62.1 °F 73% 30.06 in 10.0 mi Calm Calm - N/A   Clear
10:53 AM 73.9 °F - 61.0 °F 64% 30.06 in 10.0 mi Calm Calm - N/A   Scattered Clouds
11:53 AM 73.9 °F - 55.9 °F 53% 30.05 in 10.0 mi NNW 5.8 mph - N/A   Overcast
12:53 PM 78.1 °F - 55.9 °F 46% 30.04 in 10.0 mi East 5.8 mph - N/A   Partly Cloudy
1:53 PM 78.1 °F - 55.0 °F 45% 30.02 in 10.0 mi Calm Calm - N/A   Clear
2:53 PM 79.0 °F - 57.9 °F 48% 30.01 in 10.0 mi North 5.8 mph - N/A   Mostly Cloudy
3:53 PM 81.0 °F 80.8 °F 55.9 °F 42% 30.00 in 10.0 mi NW 11.5 mph - N/A   Mostly Cloudy
4:53 PM 81.0 °F - 50.0 °F 34% 29.99 in 10.0 mi NNW 12.7 mph - N/A   Clear
5:53 PM 81.0 °F 80.4 °F 53.1 °F 38% 29.98 in 10.0 mi NNW 12.7 mph - N/A   Clear
6:53 PM 78.1 °F - 52.0 °F 40% 29.98 in 10.0 mi NW 8.1 mph - N/A   Clear
7:53 PM 75.0 °F - 53.1 °F 46% 29.98 in 10.0 mi NNW 5.8 mph - N/A   Clear
8:53 PM 64.0 °F - 57.9 °F 80% 30.00 in 10.0 mi North 3.5 mph - N/A   Clear
9:53 PM 62.1 °F - 57.0 °F 84% 30.01 in 10.0 mi North 3.5 mph - N/A   Clear
10:53 PM 60.1 °F - 57.0 °F 90% 30.03 in 10.0 mi NNW 4.6 mph - N/A   Clear
11:53 PM 60.1 °F - 57.0 °F 90% 30.04 in 10.0 mi NNW 3.5 mph - N/A   Clear